www.pogodaiklimat.ru

Погода и климат >> Архив погоды >> Австралия >> Квинсленд >> Аэропорт Вейпа


ПОГОДА в Аэропорту Вейпа

  • Прогноз погоды в Аэропорту Вейпа
  • Монитор погоды в Аэропорту Вейпа

АРХИВ ПОГОДЫ в Аэропорту Вейпа

Время (UTC), дата Ветер
(напр.,м/с)
 
Видим.   Явления Облачность Т
(С)
Тd
(С)
f
(%)
Тe
(С)
Тes
(С)
Комфортность P
(гПа)
Po
(гПа)
Тmin
(С)
Tmax
(С)
R
(мм)
R24
(мм)
S
(см)
23 12.09 В 8 н/о н/о +24.5 +15.7 58 +28 +28 душно 1018.6 1016.5
00 13.09 В 7 н/о н/о +28.1 +15.7 47 +31 +31 душно 1018.4 1016.3
02 13.09 ЮВ 9 н/о 6/6 1500 м
[]
+28.6 +12.9 38 +30 +31 жарко 1016.5 1014.4 +17.3
03 13.09 В 8 н/о н/о +31.0 +11.9 31 +31 +31 жарко 1015.0 1012.9
05 13.09 ЮВ 8 н/о 9/0 2000 м
[]
+30.0 +12.0 33 +31 +32 жарко 1013.7 1011.6
06 13.09 В 7 н/о н/о +30.7 +13.0 34 +32 +32 жарко 1013.6 1011.5
08 13.09 В 9 н/о 8/0 2000 м
[]
+28.0 +13.5 41 +30 +30 жарко 1014.6 1012.5
09 13.09 В 8 н/о н/о +26.2 +14.6 49 +29 +29 жарко 1015.7 1013.6
11 13.09 В 7 н/о 3/0 2000 м
[]
+24.3 +14.7 55 +27 +27 жарко 1017.3 1015.2
12 13.09 В 7 н/о н/о +23.4 +14.1 56 +27 +27 душно 1017.8 1015.7
14 13.09 В 6 н/о н/о +22.1 +14.5 62 +25 +25 комфорт 1017.9 1015.8 +32.6
15 13.09 В 6 н/о н/о +21.5 +14.9 66 +25 +25 комфорт 1017.6 1015.5
17 13.09 В 4 н/о н/о +19.8 +14.8 73 +22 +22 комфорт 1016.9 1014.8
18 13.09 В 3 н/о н/о +18.9 +14.8 77 +20 +20 1016.5 1014.4
20 13.09 ЮВ 3 н/о н/о +18.0 +14.9 82 +18 +18 1017.1 1015.0
21 13.09 ЮВ 3 н/о н/о +18.0 +15.4 85 +18 +18 1017.8 1015.7
23 13.09 ЮВ 7 н/о н/о +24.0 +15.5 59 +27 +27 жарко 1018.4 1016.3
00 14.09 ЮВ 9 н/о н/о +25.8 +15.2 52 +29 +29 душно 1017.9 1015.8
02 14.09 В 9 н/о 5/5 1500 м
[]
+28.8 +11.8 35 +30 +31 жарко 1015.6 1013.5 +17.6
03 14.09 ЮВ 7 н/о н/о +30.0 +12.0 33 +31 +31 жарко 1014.2 1012.1
05 14.09 В 8 н/о 8/0 2000 м
[]
+30.9 +12.8 33 +32 +33 жарко 1012.9 1010.8
06 14.09 В 8 н/о н/о +30.1 +11.6 32 +31 +31 жарко 1012.7 1010.6
08 14.09 В 7 н/о 6/0 2000 м
[]
+28.6 +12.9 38 +30 +30 жарко 1013.9 1011.8
09 14.09 В 5 н/о н/о +26.8 +13.2 43 +29 +29 жарко 1015.0 1012.9
11 14.09 В 8 н/о 1/0 2000 м
[]
+24.8 +15.1 55 +28 +28 жарко 1016.8 1014.7
12 14.09 В 6 н/о н/о +23.8 +14.8 57 +27 +27 жарко 1017.1 1015.0
14 14.09 ЮВ 5 н/о н/о +22.1 +15.0 64 +26 +26 душно 1017.2 1015.1 +32.2
15 14.09 ЮВ 4 н/о н/о +21.3 +14.9 67 +24 +24 комфорт 1016.9 1014.8
17 14.09 ЮВ 5 н/о н/о +20.9 +14.3 66 +24 +24 комфорт 1016.0 1013.9
18 14.09 ЮВ 4 н/о н/о +20.5 +14.4 68 +23 +23 комфорт 1015.9 1013.8
20 14.09 ЮВ 4 н/о н/о +19.9 +14.5 71 +22 +22 комфорт 1016.5 1014.4
21 14.09 ЮВ 3 н/о н/о +19.9 +14.7 72 +22 +22 комфорт 1017.1 1015.0
23 14.09 В 7 н/о н/о +25.2 +14.6 52 +28 +28 жарко 1017.9 1015.8
00 15.09 В 9 н/о н/о +26.7 +13.4 44 +29 +29 жарко 1017.3 1015.2
02 15.09 В 7 н/о н/о +30.3 +12.2 33 +31 +31 жарко 1015.3 1013.2 +19.4
03 15.09 В 7 н/о н/о +31.0 +12.4 32 +32 +32 жарко 1014.2 1012.1
05 15.09 В 7 н/о 3/0 2000 м
[]
+32.1 +12.8 31 +33 +36 жарко 1013.0 1010.9
06 15.09 В 7 н/о н/о +30.4 +12.8 34 +31 +31 жарко 1013.0 1010.9
08 15.09 В 7 н/о н/о +27.9 +14.2 43 +30 +30 жарко 1014.0 1011.9
09 15.09 В 6 н/о н/о +26.1 +14.2 48 +28 +28 жарко 1015.2 1013.1
11 15.09 В 5 н/о н/о +24.5 +14.6 54 +27 +27 жарко 1016.6 1014.5
12 15.09 В 3 н/о н/о +23.5 +15.3 60 +26 +26 жарко 1016.6 1014.5
14 15.09 ЮВ 2 н/о 10/10 1000 м
[]
+21.7 +15.8 69 +25 +25 комфорт 1016.5 1014.4 +32.8
15 15.09 ЮВ 3 н/о н/о +22.3 +16.1 68 +26 +26 жарко 1015.9 1013.8
17 15.09 ЮВ 2 н/о 10/10 600 м
[]
+21.5 +16.9 75 +25 +25 комфорт 1015.1 1013.0
18 15.09 ЮВ 3 н/о н/о +21.4 +16.8 75 +25 +25 комфорт 1015.4 1013.3
20 15.09 ЮВ 2 н/о н/о +19.7 +16.5 82 +23 +23 комфорт 1015.9 1013.8
21 15.09 Ю 3 н/о н/о +19.3 +16.7 85 +22 +22 комфорт 1016.6 1014.5
23 15.09 ЮВ 5 н/о н/о +24.5 +17.0 63 +28 +28 душно 1017.2 1015.1
00 16.09 ЮВ 7 н/о н/о +26.5 +16.7 55 +30 +30 душно 1016.9 1014.8
02 16.09 ЮВ 6 н/о н/о +29.7 +13.9 38 +31 +31 жарко 1015.7 1013.6 +19.2
03 16.09 В 5 н/о н/о +30.7 +14.3 37 +33 +33 душно 1014.6 1012.5
05 16.09 В 6 н/о 5/5 1500 м
[]
+31.3 +14.9 37 +33 +36 жарко 1013.3 1011.2
06 16.09 В 7 н/о н/о +29.9 +14.4 39 +32 +32 жарко 1013.0 1010.9
08 16.09 В 5 н/о н/о +28.5 +15.4 45 +31 +31 душно 1013.0 1010.9
09 16.09 В 4 н/о н/о +27.0 +15.4 49 +30 +30 душно 1013.9 1011.8
11 16.09 В 5 н/о н/о +25.0 +16.2 58 +28 +28 жарко 1015.6 1013.5
12 16.09 В 4 н/о н/о +23.9 +15.9 61 +27 +27 жарко 1016.0 1013.9
14 16.09 В 3 н/о н/о +22.2 +15.8 67 +26 +26 душно 1016.2 1014.1 +32.4
15 16.09 ЮВ 2 н/о н/о +20.8 +16.0 74 +25 +25 комфорт 1015.8 1013.7
17 16.09 ЮВ 2 н/о н/о +19.6 +16.3 81 +23 +23 комфорт 1014.7 1012.6
18 16.09 штиль 0 н/о н/о +18.1 +15.7 86 +18 +18 1014.7 1012.6
20 16.09 штиль 0 н/о н/о +17.2 +15.4 89 +17 +17 1015.7 1013.6
21 16.09 штиль 0 н/о н/о +18.0 +16.2 89 +18 +18 1016.1 1014.0
23 16.09 В 7 н/о н/о +24.3 +17.3 65 +28 +28 душно 1017.3 1015.2
00 17.09 В 7 н/о н/о +27.1 +16.1 51 +30 +30 душно 1017.2 1015.1
02 17.09 ЮВ 6 н/о н/о +30.5 +13.3 35 +32 +32 жарко 1015.7 1013.6 +16.9
03 17.09 В 6 н/о н/о +31.7 +11.5 29 +32 +32 жарко 1014.5 1012.4
05 17.09 З 6 9000 м 1/1 600 м
[]
+28.9 +18.1 52 +34 +39 очень
душно
1013.1 1011.0
06 17.09 З 5 н/о н/о +28.0 +18.1 55 +33 +33 очень
душно
1013.1 1011.0
08 17.09 З 3 6000 м 6/6 200 м
[]
+25.5 +19.4 69 +31 +31 очень
душно
1013.8 1011.7
09 17.09 С 3 н/о н/о +24.5 +19.8 75 +30 +30 очень
душно
1014.8 1012.7
11 17.09 штиль 0 н/о 9/9 600 м
[]
+23.3 +19.5 79 +30 +30 очень
душно
1016.5 1014.4
12 17.09 СВ 2 н/о н/о +22.7 +19.7 83 +29 +29 очень
душно
1017.0 1014.9
14 17.09 СВ 3 н/о н/о +21.9 +17.1 74 +26 +26 душно 1017.1 1015.0 +33.7
15 17.09 СВ 1 н/о н/о +21.2 +16.8 76 +25 +25 комфорт 1016.5 1014.4
17 17.09 В 3 н/о 10/10 600 м
[]
+21.3 +17.9 81 +25 +25 комфорт 1016.1 1014.0
18 17.09 ЮВ 3 н/о н/о +22.0 +17.8 77 +27 +27 душно 1015.8 1013.7
20 17.09 штиль 0 н/о 4/4 600 м
[]
+19.6 +16.4 82 +22 +22 комфорт 1016.7 1014.6
21 17.09 штиль 0 н/о н/о +19.6 +17.0 85 +22 +22 комфорт 1017.3 1015.2
23 17.09 В 5 н/о 3/3 600 м
[]
+25.3 +18.0 64 +30 +32 душно 1018.0 1015.9
00 18.09 В 6 н/о н/о +26.3 +16.3 54 +30 +30 душно 1017.7 1015.6
02 18.09 ЮВ 4 н/о н/о +29.7 +14.3 39 +32 +32 душно 1015.7 1013.6 +19.3
03 18.09 ЮВ 3 н/о н/о +32.1 +11.3 28 +32 +32 жарко 1014.5 1012.4
05 18.09 ЮВ 6 н/о н/о +34.0 +7.1 19 +32 +32 жарко 1012.6 1010.5
06 18.09 З 5 н/о н/о +30.0 +18.1 49 +35 +35 очень
душно
1012.6 1010.5
08 18.09 З 3 6000 м н/о +26.7 +18.6 61 +32 +32 очень
душно
1013.7 1011.6
09 18.09 З 3 н/о н/о +25.0 +19.4 71 +30 +30 душно 1014.8 1012.7
11 18.09 С 2 н/о н/о +23.0 +19.4 80 +29 +29 очень
душно
1016.2 1014.1
12 18.09 штиль 0 н/о н/о +22.0 +18.8 82 +27 +27 душно 1016.3 1014.2
14 18.09 В 3 н/о н/о +21.4 +15.0 67 +25 +25 комфорт 1016.3 1014.2 +35.1
15 18.09 В 3 н/о н/о +20.9 +15.7 72 +25 +25 комфорт 1015.9 1013.8
17 18.09 штиль 0 н/о н/о +17.0 +14.3 84 +17 +17 1014.9 1012.8
18 18.09 В 2 н/о н/о +17.5 +15.3 87 +18 +18 1014.5 1012.4
20 18.09 штиль 0 н/о н/о +15.4 +13.6 89 +15 +15 1015.6 1013.5
21 18.09 штиль 0 н/о н/о +16.5 +15.0 91 +16 +16 1016.3 1014.2
23 18.09 В 4 н/о н/о +24.3 +17.5 66 +28 +28 душно 1016.8 1014.7
00 19.09 СВ 6 н/о н/о +26.8 +18.1 59 +31 +31 душно 1016.1 1014.0
02 19.09 В 5 н/о н/о +31.0 +16.6 42 +34 +34 душно 1014.0 1011.9 +15.3
03 19.09 В 5 н/о н/о +31.8 +15.3 37 +34 +34 душно 1012.9 1010.8
05 19.09 В 6 н/о 1/0 2000 м
[]
+34.2 +12.5 27 +34 +39 очень
жарко
1011.0 1008.9
06 19.09 В 5 н/о н/о +34.0 +12.4 27 +34 +34 очень
жарко
1011.1 1009.0
08 19.09 З 4 н/о н/о +25.8 +19.7 69 +31 +31 очень
душно
1012.6 1010.5
09 19.09 З 3 н/о н/о +24.6 +19.9 75 +30 +30 очень
душно
1013.3 1011.2
11 19.09 В 3 н/о 10/10 1000 м
[]
+25.2 +19.3 70 +30 +30 душно 1014.5 1012.4
12 19.09 В 3 н/о н/о +25.1 +18.8 68 +30 +30 душно 1014.5 1012.4
14 19.09 В 7 н/о н/о +24.0 +18.6 72 +29 +29 душно 1014.1 1012.0 +35.3
15 19.09 В 4 н/о н/о +23.3 +18.6 75 +29 +29 душно 1014.0 1011.9
17 19.09 В 3 н/о н/о +22.4 +18.8 80 +28 +28 душно 1013.1 1011.0
18 19.09 ЮВ 3 н/о н/о +22.2 +18.8 81 +28 +28 душно 1012.9 1010.8
20 19.09 В 3 н/о н/о +22.1 +18.7 81 +27 +27 душно 1013.9 1011.8
21 19.09 ЮВ 2 н/о н/о +22.4 +18.8 80 +28 +28 душно 1014.4 1012.3
23 19.09 В 7 н/о 4/4 600 м
[]
+26.8 +18.4 60 +32 +33 очень
душно
1015.3 1013.2

 

Местоположение метеостанции Аэропорт Вейпа (Квинсленд, Австралия): широта -12.68 долгота 141.91 высота над уровнем моря 19 м.

В архиве по умолчанию представлена погода в Аэропорту Вейпа за последнюю неделю. Архивные данные за месяц целиком и за предыдущие месяцы, начиная с января 2011 года, Вы можете получить, выбрав интересующий диапазон дат из раскрывающегося списка и нажав кнопку "Ввод!".


*Определитесь, кто Вы:
робот инопланетянин человек

Внимание! Время в таблицах - всемирное. Для получения местного времени необходимо прибавить поправку, которая равна 10 ч.

Смотрите также архив погоды в соседних городах и на ближайших метеорологических станциях:

Погода на Базе ВВС Scherger (Квинсленд, Австралия) (21 км)
Погода в Аэропорту Локхарт (Квинсленд, Австралия) (151 км)
Погода в Коэн аэропорту (Квинсленд, Австралия) (179 км)
Погода на Острове Хорн (Квинсленд, Австралия) (237 км)
Погода в Кованьяме (Квинсленд, Австралия) (312 км)
Погода на Острове Коконат (Квинсленд, Австралия) (319 км)
Погода в Палмервилле (Квинсленд, Австралия) (436 км)
Погода на Мысе Флэттери (Квинсленд, Австралия) (448 км)
Погода в Куктауне (Квинсленд, Австралия) (468 км)
Погода в Мерауке (Индонезия) (497 км)

Пояснения к столбцам:

Ветер - указаны скорость ветра в м/с - средняя за 10 мин, порывы в срок и между сроками (в фигурных скобках) и направление, откуда дует ветер: С - северный, СВ - северо-восточный, В - восточный, ЮВ - юго-восточный, Ю - южный, ЮЗ - юго-западный, З - западный, СЗ - северо-западный.
Видимость - горизонтальная дальность видимости в метрах или километрах. При видимости от 1 до 10 км при отсутствии осадков обычно наблюдается дымка, при ухудшении видимости до 1 км и менее - туман. В сухую погоду видимость может ухудшаться дымом, пылью или мглою.
Явления - указаны атмосферные явления, наблюдавшиеся в срок или в последний час перед сроком; фигурными скобками обозначены явления, наблюдавшиеся между сроками (за 1-3 часа до срока); квадратными скобками обозначены град или гололедные отложения с указанием их диаметра в мм.
Облачность - указаны через наклонную черту общая и нижняя облачность в баллах и высота нижней границы облаков в метрах; квадратными скобками обозначены формы облаков: Ci - перистые, Cs - перисто-слоистые, Cc - перисто-кучевые, Ac - высококучевые, As - высокослоистые, Sc - слоисто-кучевые, Ns - слоисто-дождевые, Cu - кучевые, Cb - кучево-дождевые. Подробнее классификацию облаков см. в Атласе облаков (PDF).
T - Температура воздуха - температура, измеренная на высоте 2 м над землей.
Td - Температура точки росы - температура, при понижении до которой содержащийся в воздухе водяной пар достигнет насыщения.
f - Относительная влажность воздуха - влажноcть воздуха, измеренная на высоте 2 м над землей.
Te - Эффективная температура - температура, которую ощущает одетый по сезону человек в тени. Характеристика душности погоды. При расчете учитывается влияние влажности воздуха и скорости ветра на теплоощущения человека.
Tes - Эффективная температура на солнце - температура, которую ощущает человек, с поправкой на солнечный нагрев. Характеристика знойности погоды. Зависит от высоты солнца над горизонтом, облачности и скорости ветра. Ночью, в пасмурную погоду, а также при ветре 12 м/с и более поправка равна нулю.
P - Атмосферное давление - приведенное к уровню моря атмосферное давление.
Po - Атмосферное давление - измеренное на уровне метеостанции атмосферное давление.
Tmin - Минимальная температура - минимум температуры воздуха на высоте 2 м над землей.
Tmax - Максимальная температура - максимум температуры воздуха на высоте 2 м над землей.
R - Количество осадков - Количество выпавших осадков за период времени, мм. При наведении курсора мыши на число - период времени, за который выпало указанное количество осадков.
R24 - Количество осадков - Количество выпавших осадков за 24 часа, мм.
S - Снежный покров - Высота снежного покрова, см. При наведении курсора мыши на число - состояние снежного покрова и степень покрытия местности в баллах.